Time,TemperatureF,DewpointF,PressureIn,WindDirection,WindDirectionDegrees,WindSpeedMPH,WindSpeedGustMPH,Humidity,HourlyPrecipIn,Conditions,Clouds,dailyrainin,SoftwareType,DateUTC
2013-10-11 05:11:00,52.2,51.4,29.93,SSE,150,0.0,0.0,97,0.00,,,0.00,Wunderground v.1.15,2013-10-11 10:11:00,
2013-10-11 05:19:00,52.3,51.5,29.93,SSE,150,0.0,0.0,97,0.00,,,0.00,Wunderground v.1.15,2013-10-11 10:19:00,
2013-10-11 05:20:00,52.3,51.5,29.94,SSE,150,0.0,0.0,97,0.00,,,0.00,Wunderground v.1.15,2013-10-11 10:20:00,
2013-10-11 05:30:00,52.4,51.6,29.93,SSE,151,0.0,0.0,97,0.00,,,0.00,Wunderground v.1.15,2013-10-11 10:30:00,
2013-10-11 05:31:00,52.4,51.6,29.94,SSE,150,0.0,0.0,97,0.00,,,0.00,Wunderground v.1.15,2013-10-11 10:31:00,
2013-10-11 05:37:00,52.5,51.7,29.93,SSE,150,0.0,0.0,97,0.00,,,0.00,Wunderground v.1.15,2013-10-11 10:37:00,
2013-10-11 05:41:00,52.6,51.8,29.93,SSE,151,0.0,0.0,97,0.00,,,0.00,Wunderground v.1.15,2013-10-11 10:41:00,
2013-10-11 05:46:00,52.7,51.9,29.93,SSE,151,0.0,0.0,97,0.00,,,0.00,Wunderground v.1.15,2013-10-11 10:46:00,
2013-10-11 05:52:00,52.8,52.0,29.93,SSE,150,0.0,0.0,97,0.00,,,0.00,Wunderground v.1.15,2013-10-11 10:52:00,
2013-10-11 05:58:00,52.9,52.1,29.93,SSE,150,0.0,0.0,97,0.00,,,0.00,Wunderground v.1.15,2013-10-11 10:58:00,
2013-10-11 06:04:00,53.0,52.2,29.93,SSE,150,0.0,0.0,97,0.00,,,0.00,Wunderground v.1.15,2013-10-11 11:04:00,
2013-10-11 06:09:00,53.0,52.2,29.93,SSE,150,0.0,0.0,97,0.00,,,0.00,Wunderground v.1.15,2013-10-11 11:09:00,
2013-10-11 06:15:00,53.1,52.3,29.93,SSE,150,0.0,0.0,97,0.00,,,0.00,Wunderground v.1.15,2013-10-11 11:15:00,
2013-10-11 06:21:00,53.2,52.4,29.94,SSE,150,0.0,0.0,97,0.00,,,0.00,Wunderground v.1.15,2013-10-11 11:21:00,
2013-10-11 06:27:00,53.0,52.2,29.94,WSW,250,0.0,0.0,97,0.00,,,0.00,Wunderground v.1.15,2013-10-11 11:27:00,
2013-10-11 06:32:00,53.0,52.2,29.94,WSW,250,0.0,0.0,97,0.00,,,0.00,Wunderground v.1.15,2013-10-11 11:32:00,
2013-10-11 06:38:00,52.9,52.1,29.94,WSW,250,0.0,0.0,97,0.00,,,0.00,Wunderground v.1.15,2013-10-11 11:38:00,
2013-10-11 06:44:00,52.8,52.0,29.94,WSW,250,0.0,0.0,97,0.00,,,0.00,Wunderground v.1.15,2013-10-11 11:44:00,
2013-10-11 06:50:00,52.8,52.0,29.94,WSW,250,0.0,0.0,97,0.00,,,0.00,Wunderground v.1.15,2013-10-11 11:50:00,
2013-10-11 06:55:00,52.8,52.0,29.94,WSW,250,0.0,0.0,97,0.00,,,0.00,Wunderground v.1.15,2013-10-11 11:55:00,
2013-10-11 07:00:00,52.8,52.0,29.95,WSW,250,0.0,0.0,97,0.00,,,0.00,Wunderground v.1.15,2013-10-11 12:00:00,
2013-10-11 07:06:00,52.8,52.0,29.94,WSW,246,0.0,0.0,97,0.00,,,0.00,Wunderground v.1.15,2013-10-11 12:06:00,
2013-10-11 07:12:00,52.8,52.0,29.95,WSW,246,0.0,0.0,97,0.00,,,0.00,Wunderground v.1.15,2013-10-11 12:12:00,
2013-10-11 07:17:00,52.9,52.1,29.95,WSW,246,0.0,0.0,97,0.00,,,0.00,Wunderground v.1.15,2013-10-11 12:17:00,
2013-10-11 07:23:00,53.1,52.3,29.95,WSW,246,0.0,0.0,97,0.00,,,0.00,Wunderground v.1.15,2013-10-11 12:23:00,
2013-10-11 07:29:00,53.0,52.2,29.95,WSW,246,0.0,0.0,97,0.00,,,0.00,Wunderground v.1.15,2013-10-11 12:29:00,
2013-10-11 07:34:00,53.1,52.3,29.95,WSW,245,0.0,0.0,97,0.00,,,0.00,Wunderground v.1.15,2013-10-11 12:34:00,
2013-10-11 07:40:00,53.1,52.3,29.95,WSW,256,0.0,0.0,97,0.00,,,0.00,Wunderground v.1.15,2013-10-11 12:40:00,
2013-10-11 07:46:00,53.2,52.4,29.96,WSW,253,0.0,0.0,97,0.00,,,0.00,Wunderground v.1.15,2013-10-11 12:46:00,
2013-10-11 07:52:00,53.2,52.4,29.95,SW,228,0.0,0.0,97,0.00,,,0.00,Wunderground v.1.15,2013-10-11 12:52:00,
2013-10-11 07:57:00,53.3,52.5,29.95,SSE,153,0.0,0.0,97,0.00,,,0.00,Wunderground v.1.15,2013-10-11 12:57:00,
2013-10-11 08:03:00,53.6,52.8,29.95,SSE,152,0.0,0.0,97,0.00,,,0.00,Wunderground v.1.15,2013-10-11 13:03:00,
2013-10-11 08:09:00,53.6,52.8,29.95,SSE,153,0.0,0.0,97,0.00,,,0.00,Wunderground v.1.15,2013-10-11 13:09:00,
2013-10-11 08:15:00,53.8,53.0,29.95,SSE,152,0.0,0.0,97,0.00,,,0.00,Wunderground v.1.15,2013-10-11 13:15:00,
2013-10-11 08:20:00,53.8,53.0,29.95,SE,129,0.0,0.0,97,0.00,,,0.00,Wunderground v.1.15,2013-10-11 13:20:00,
2013-10-11 08:26:00,53.9,53.1,29.95,SE,129,0.0,0.0,97,0.00,,,0.00,Wunderground v.1.15,2013-10-11 13:26:00,
2013-10-11 08:32:00,54.3,53.5,29.95,SE,129,0.0,0.0,97,0.00,,,0.00,Wunderground v.1.15,2013-10-11 13:32:00,
2013-10-11 08:38:00,54.7,54.1,29.95,SE,129,0.0,0.0,98,0.00,,,0.00,Wunderground v.1.15,2013-10-11 13:38:00,
2013-10-11 08:44:00,55.0,54.4,29.95,SE,129,0.0,0.0,98,0.00,,,0.00,Wunderground v.1.15,2013-10-11 13:44:00,
2013-10-11 08:50:00,55.5,54.9,29.95,West,262,0.0,0.0,98,0.00,,,0.00,Wunderground v.1.15,2013-10-11 13:50:00,
2013-10-11 08:56:00,56.2,55.6,29.95,West,262,0.0,0.0,98,0.00,,,0.00,Wunderground v.1.15,2013-10-11 13:56:00,
2013-10-11 09:01:00,56.3,55.5,29.95,West,263,0.0,0.0,97,0.00,,,0.00,Wunderground v.1.15,2013-10-11 14:01:00,
2013-10-11 09:07:00,56.8,56.0,29.95,West,263,0.0,0.0,97,0.00,,,0.00,Wunderground v.1.15,2013-10-11 14:07:00,
2013-10-11 09:13:00,58.0,57.4,29.95,West,280,0.0,0.0,98,0.00,,,0.00,Wunderground v.1.15,2013-10-11 14:13:00,
2013-10-11 09:19:00,58.3,57.7,29.95,NE,43,0.0,1.0,98,0.00,,,0.00,Wunderground v.1.15,2013-10-11 14:19:00,
2013-10-11 09:24:00,58.8,58.2,29.94,NE,43,0.0,0.0,98,0.00,,,0.00,Wunderground v.1.15,2013-10-11 14:24:00,
2013-10-11 09:30:00,59.4,58.5,29.94,NNE,33,0.0,0.0,97,0.00,,,0.00,Wunderground v.1.15,2013-10-11 14:30:00,
2013-10-11 09:36:00,60.2,59.3,29.94,NW,311,0.0,1.0,97,0.00,,,0.00,Wunderground v.1.15,2013-10-11 14:36:00,
2013-10-11 09:42:00,61.4,60.5,29.94,ESE,110,0.0,0.0,97,0.00,,,0.00,Wunderground v.1.15,2013-10-11 14:42:00,
2013-10-11 09:48:00,62.4,61.5,29.94,NW,318,0.0,1.0,97,0.00,,,0.00,Wunderground v.1.15,2013-10-11 14:48:00,
2013-10-11 09:54:00,63.3,62.4,29.94,NNW,335,0.0,1.0,97,0.00,,,0.00,Wunderground v.1.15,2013-10-11 14:54:00,
2013-10-11 10:00:00,64.1,62.9,29.93,North,355,1.0,1.0,96,0.00,,,0.00,Wunderground v.1.15,2013-10-11 15:00:00,
2013-10-11 10:05:00,65.2,63.4,29.93,East,94,1.0,2.0,94,0.00,,,0.00,Wunderground v.1.15,2013-10-11 15:05:00,
2013-10-11 10:11:00,66.6,63.6,29.93,SSW,203,1.0,1.0,90,0.00,,,0.00,Wunderground v.1.15,2013-10-11 15:11:00,
2013-10-11 10:17:00,67.9,63.9,29.93,WSW,246,1.0,2.0,87,0.00,,,0.00,Wunderground v.1.15,2013-10-11 15:17:00,
2013-10-11 10:23:00,68.8,63.4,29.93,West,264,1.0,2.0,83,0.00,,,0.00,Wunderground v.1.15,2013-10-11 15:23:00,
2013-10-11 10:28:00,69.6,63.9,29.92,South,186,2.0,3.0,82,0.00,,,0.00,Wunderground v.1.15,2013-10-11 15:28:00,
2013-10-11 10:34:00,70.5,64.0,29.92,SSW,205,1.0,5.0,80,0.00,,,0.00,Wunderground v.1.15,2013-10-11 15:34:00,
2013-10-11 10:40:00,71.0,63.8,29.92,SSE,162,2.0,2.0,78,0.00,,,0.00,Wunderground v.1.15,2013-10-11 15:40:00,
2013-10-11 10:46:00,71.4,64.2,29.92,ESE,102,2.0,3.0,78,0.00,,,0.00,Wunderground v.1.15,2013-10-11 15:46:00,
2013-10-11 10:52:00,71.7,64.1,29.92,SE,124,3.0,3.0,77,0.00,,,0.00,Wunderground v.1.15,2013-10-11 15:52:00,
2013-10-11 10:58:00,72.1,64.5,29.91,West,281,3.0,3.0,77,0.00,,,0.00,Wunderground v.1.15,2013-10-11 15:58:00,
2013-10-11 11:04:00,72.7,64.7,29.91,West,267,2.0,4.0,76,0.00,,,0.00,Wunderground v.1.15,2013-10-11 16:04:00,
2013-10-11 11:10:00,73.1,64.3,29.90,SW,225,2.0,2.0,74,0.00,,,0.00,Wunderground v.1.15,2013-10-11 16:10:00,
2013-10-11 11:15:00,73.4,64.6,29.90,West,259,3.0,4.0,74,0.00,,,0.00,Wunderground v.1.15,2013-10-11 16:15:00,
2013-10-11 11:21:00,73.7,64.5,29.91,SSE,165,2.0,2.0,73,0.00,,,0.00,Wunderground v.1.15,2013-10-11 16:21:00,
2013-10-11 11:27:00,74.0,64.8,29.90,WNW,295,2.0,4.0,73,0.00,,,0.00,Wunderground v.1.15,2013-10-11 16:27:00,
2013-10-11 11:33:00,74.3,65.1,29.91,SW,225,2.0,5.0,73,0.00,,,0.00,Wunderground v.1.15,2013-10-11 16:33:00,
2013-10-11 11:39:00,74.4,64.8,29.90,SW,217,3.0,7.0,72,0.00,,,0.00,Wunderground v.1.15,2013-10-11 16:39:00,
2013-10-11 11:45:00,74.5,64.1,29.90,East,88,4.0,5.0,70,0.00,,,0.00,Wunderground v.1.15,2013-10-11 16:45:00,
2013-10-11 11:51:00,74.8,64.4,29.90,NNW,339,4.0,5.0,70,0.00,,,0.00,Wunderground v.1.15,2013-10-11 16:51:00,
2013-10-11 11:56:00,75.3,64.8,29.89,West,259,4.0,5.0,70,0.00,,,0.00,Wunderground v.1.15,2013-10-11 16:56:00,
2013-10-11 12:02:00,75.9,65.0,29.89,East,88,4.0,4.0,69,0.00,,,0.00,Wunderground v.1.15,2013-10-11 17:02:00,
2013-10-11 12:08:00,76.4,65.1,29.89,SW,219,3.0,5.0,68,0.00,,,0.00,Wunderground v.1.15,2013-10-11 17:08:00,
2013-10-11 12:14:00,76.4,65.1,29.89,SW,220,3.0,3.0,68,0.00,,,0.00,Wunderground v.1.15,2013-10-11 17:14:00,
2013-10-11 12:19:00,76.7,65.3,29.89,West,267,3.0,6.0,68,0.00,,,0.00,Wunderground v.1.15,2013-10-11 17:19:00,
2013-10-11 12:25:00,77.0,65.2,29.88,East,96,3.0,4.0,67,0.00,,,0.00,Wunderground v.1.15,2013-10-11 17:25:00,
2013-10-11 12:31:00,77.4,65.1,29.88,ESE,121,3.0,8.0,66,0.00,,,0.00,Wunderground v.1.15,2013-10-11 17:31:00,
2013-10-11 12:37:00,77.7,65.0,29.88,West,278,3.0,8.0,65,0.00,,,0.00,Wunderground v.1.15,2013-10-11 17:37:00,
2013-10-11 12:43:00,77.6,64.5,29.87,SW,220,3.0,8.0,64,0.00,,,0.00,Wunderground v.1.15,2013-10-11 17:43:00,
2013-10-11 12:49:00,77.6,64.9,29.87,SW,232,4.0,8.0,65,0.00,,,0.00,Wunderground v.1.15,2013-10-11 17:49:00,
2013-10-11 12:55:00,77.7,65.4,29.87,SW,217,3.0,8.0,66,0.00,,,0.00,Wunderground v.1.15,2013-10-11 17:55:00,
2013-10-11 13:00:00,78.1,65.4,29.86,West,271,2.0,2.0,65,0.00,,,0.00,Wunderground v.1.15,2013-10-11 18:00:00,
2013-10-11 13:06:00,78.2,64.6,29.86,WSW,257,3.0,8.0,63,0.00,,,0.00,Wunderground v.1.15,2013-10-11 18:06:00,
2013-10-11 13:12:00,78.3,64.7,29.86,South,174,4.0,5.0,63,0.00,,,0.00,Wunderground v.1.15,2013-10-11 18:12:00,
2013-10-11 13:18:00,78.5,64.9,29.86,WSW,252,4.0,6.0,63,0.00,,,0.00,Wunderground v.1.15,2013-10-11 18:18:00,
2013-10-11 13:24:00,78.5,64.9,29.85,SSE,166,4.0,4.0,63,0.00,,,0.00,Wunderground v.1.15,2013-10-11 18:24:00,
2013-10-11 13:30:00,78.8,66.0,29.85,SW,215,3.0,3.0,65,0.00,,,0.00,Wunderground v.1.15,2013-10-11 18:30:00,
2013-10-11 13:36:00,78.8,65.1,29.85,WSW,248,3.0,8.0,63,0.00,,,0.00,Wunderground v.1.15,2013-10-11 18:36:00,
2013-10-11 13:42:00,78.8,65.1,29.85,WNW,291,4.0,8.0,63,0.00,,,0.00,Wunderground v.1.15,2013-10-11 18:42:00,
2013-10-11 13:47:00,78.8,65.1,29.85,SW,235,4.0,8.0,63,0.00,,,0.00,Wunderground v.1.15,2013-10-11 18:47:00,
2013-10-11 13:53:00,79.1,65.4,29.85,West,264,4.0,8.0,63,0.00,,,0.00,Wunderground v.1.15,2013-10-11 18:53:00,
2013-10-11 13:59:00,79.0,64.9,29.84,ESE,113,3.0,8.0,62,0.00,,,0.00,Wunderground v.1.15,2013-10-11 18:59:00,
2013-10-11 14:05:00,78.6,64.5,29.84,SE,136,3.0,4.0,62,0.00,,,0.00,Wunderground v.1.15,2013-10-11 19:05:00,
2013-10-11 14:10:00,78.7,65.5,29.84,SW,229,3.0,3.0,64,0.00,,,0.00,Wunderground v.1.15,2013-10-11 19:10:00,
2013-10-11 14:16:00,79.4,65.7,29.84,WSW,256,3.0,5.0,63,0.00,,,0.00,Wunderground v.1.15,2013-10-11 19:16:00,
2013-10-11 14:22:00,79.3,66.1,29.84,West,264,3.0,3.0,64,0.00,,,0.00,Wunderground v.1.15,2013-10-11 19:22:00,
2013-10-11 14:28:00,78.6,64.9,29.84,WSW,257,3.0,5.0,63,0.00,,,0.00,Wunderground v.1.15,2013-10-11 19:28:00,
2013-10-11 14:34:00,78.0,64.8,29.84,SSW,200,3.0,10.0,64,0.00,,,0.00,Wunderground v.1.15,2013-10-11 19:34:00,
2013-10-11 14:40:00,77.7,65.0,29.84,WSW,242,3.0,3.0,65,0.00,,,0.00,Wunderground v.1.15,2013-10-11 19:40:00,
2013-10-11 14:46:00,77.6,64.9,29.84,SW,231,2.0,10.0,65,0.00,,,0.00,Wunderground v.1.15,2013-10-11 19:46:00,
2013-10-11 14:51:00,77.6,65.3,29.83,SSW,212,2.0,10.0,66,0.00,,,0.00,Wunderground v.1.15,2013-10-11 19:51:00,
2013-10-11 14:57:00,78.0,66.2,29.83,WNW,302,1.0,10.0,67,0.00,,,0.00,Wunderground v.1.15,2013-10-11 19:57:00,
2013-10-11 15:03:00,77.7,65.0,29.83,SE,145,2.0,3.0,65,0.00,,,0.00,Wunderground v.1.15,2013-10-11 20:03:00,
2013-10-11 15:09:00,77.7,65.4,29.84,SW,226,3.0,5.0,66,0.00,,,0.00,Wunderground v.1.15,2013-10-11 20:09:00,
2013-10-11 15:14:00,77.2,65.0,29.84,WSW,239,3.0,4.0,66,0.00,,,0.00,Wunderground v.1.15,2013-10-11 20:14:00,
2013-10-11 15:20:00,76.8,64.6,29.84,SW,236,3.0,3.0,66,0.00,,,0.00,Wunderground v.1.15,2013-10-11 20:20:00,
2013-10-11 15:26:00,76.6,64.8,29.84,WSW,248,2.0,3.0,67,0.00,,,0.00,Wunderground v.1.15,2013-10-11 20:26:00,
2013-10-11 15:32:00,76.3,65.0,29.84,WSW,242,2.0,8.0,68,0.00,,,0.00,Wunderground v.1.15,2013-10-11 20:32:00,
2013-10-11 15:38:00,76.0,64.7,29.84,SSW,209,2.0,8.0,68,0.00,,,0.00,Wunderground v.1.15,2013-10-11 20:38:00,
2013-10-11 15:44:00,75.9,64.6,29.84,WSW,243,1.0,8.0,68,0.00,,,0.00,Wunderground v.1.15,2013-10-11 20:44:00,
2013-10-11 15:50:00,75.8,64.5,29.84,East,101,2.0,8.0,68,0.00,,,0.00,Wunderground v.1.15,2013-10-11 20:50:00,
2013-10-11 15:55:00,75.9,65.0,29.84,East,100,2.0,8.0,69,0.00,,,0.00,Wunderground v.1.15,2013-10-11 20:55:00,
2013-10-11 16:00:00,75.8,64.5,29.84,East,87,1.0,1.0,68,0.00,,,0.00,Wunderground v.1.15,2013-10-11 21:00:00,
2013-10-11 16:06:00,75.7,64.8,29.84,WSW,246,2.0,4.0,69,0.00,,,0.00,Wunderground v.1.15,2013-10-11 21:06:00,
2013-10-11 16:12:00,75.4,64.5,29.85,SW,215,2.0,2.0,69,0.00,,,0.00,Wunderground v.1.15,2013-10-11 21:12:00,
2013-10-11 16:17:00,75.1,64.6,29.85,ENE,68,2.0,2.0,70,0.00,,,0.00,Wunderground v.1.15,2013-10-11 21:17:00,
2013-10-11 16:23:00,75.0,64.5,29.85,SW,225,2.0,2.0,70,0.00,,,0.00,Wunderground v.1.15,2013-10-11 21:23:00,
2013-10-11 16:29:00,74.8,64.8,29.85,SW,235,1.0,2.0,71,0.00,,,0.00,Wunderground v.1.15,2013-10-11 21:29:00,
2013-10-11 16:35:00,74.7,65.1,29.84,SW,233,1.0,7.0,72,0.00,,,0.00,Wunderground v.1.15,2013-10-11 21:35:00,
2013-10-11 16:40:00,74.8,64.8,29.84,SW,232,0.0,7.0,71,0.00,,,0.00,Wunderground v.1.15,2013-10-11 21:40:00,
2013-10-11 16:46:00,75.0,65.0,29.84,SE,146,1.0,7.0,71,0.00,,,0.00,Wunderground v.1.15,2013-10-11 21:46:00,
2013-10-11 16:52:00,75.1,65.1,29.85,SE,129,1.0,7.0,71,0.00,,,0.00,Wunderground v.1.15,2013-10-11 21:52:00,
2013-10-11 16:57:00,75.1,65.1,29.85,SW,226,1.0,7.0,71,0.00,,,0.00,Wunderground v.1.15,2013-10-11 21:57:00,
2013-10-11 17:03:00,75.1,65.5,29.85,WSW,250,1.0,1.0,72,0.00,,,0.00,Wunderground v.1.15,2013-10-11 22:03:00,
2013-10-11 17:09:00,75.1,65.5,29.85,WSW,249,0.0,1.0,72,0.00,,,0.00,Wunderground v.1.15,2013-10-11 22:09:00,
2013-10-11 17:15:00,75.2,65.1,29.85,SW,235,1.0,2.0,71,0.00,,,0.00,Wunderground v.1.15,2013-10-11 22:15:00,
2013-10-11 17:21:00,75.1,65.1,29.85,SW,225,1.0,1.0,71,0.00,,,0.00,Wunderground v.1.15,2013-10-11 22:21:00,
2013-10-11 17:26:00,75.0,65.4,29.85,SW,229,1.0,1.0,72,0.00,,,0.00,Wunderground v.1.15,2013-10-11 22:26:00,
2013-10-11 17:32:00,74.9,65.3,29.85,WSW,250,1.0,5.0,72,0.00,,,0.00,Wunderground v.1.15,2013-10-11 22:32:00,
2013-10-11 17:38:00,74.8,65.2,29.85,WSW,238,0.0,5.0,72,0.00,,,0.00,Wunderground v.1.15,2013-10-11 22:38:00,
2013-10-11 17:44:00,74.7,65.5,29.85,WSW,243,0.0,5.0,73,0.00,,,0.00,Wunderground v.1.15,2013-10-11 22:44:00,
2013-10-11 17:50:00,74.6,65.4,29.85,West,271,0.0,5.0,73,0.00,,,0.00,Wunderground v.1.15,2013-10-11 22:50:00,
2013-10-11 17:56:00,74.8,65.6,29.85,East,98,1.0,5.0,73,0.00,,,0.00,Wunderground v.1.15,2013-10-11 22:56:00,
2013-10-11 18:02:00,75.0,65.4,29.85,SW,236,2.0,2.0,72,0.00,,,0.00,Wunderground v.1.15,2013-10-11 23:02:00,
2013-10-11 18:07:00,74.8,64.8,29.85,SW,225,2.0,4.0,71,0.00,,,0.00,Wunderground v.1.15,2013-10-11 23:07:00,
2013-10-11 18:13:00,74.4,64.8,29.85,SSW,208,2.0,3.0,72,0.00,,,0.00,Wunderground v.1.15,2013-10-11 23:13:00,
2013-10-11 18:19:00,73.8,64.6,29.85,ESE,110,1.0,4.0,73,0.00,,,0.00,Wunderground v.1.15,2013-10-11 23:19:00,
2013-10-11 18:25:00,73.4,64.6,29.85,WNW,284,1.0,2.0,74,0.00,,,0.00,Wunderground v.1.15,2013-10-11 23:25:00,
2013-10-11 18:31:00,72.9,64.5,29.85,SW,226,1.0,4.0,75,0.00,,,0.00,Wunderground v.1.15,2013-10-11 23:31:00,
2013-10-11 18:37:00,72.7,64.3,29.85,SE,129,1.0,4.0,75,0.00,,,0.00,Wunderground v.1.15,2013-10-11 23:37:00,
2013-10-11 18:43:00,72.4,64.4,29.85,WSW,253,0.0,4.0,76,0.00,,,0.00,Wunderground v.1.15,2013-10-11 23:43:00,
2013-10-11 18:49:00,72.1,64.5,29.85,WNW,297,0.0,4.0,77,0.00,,,0.00,Wunderground v.1.15,2013-10-11 23:49:00,
2013-10-11 18:54:00,71.6,64.4,29.84,ENE,58,0.0,4.0,78,0.00,,,0.00,Wunderground v.1.15,2013-10-11 23:54:00,
2013-10-11 19:00:00,71.4,64.5,29.84,NE,42,1.0,1.0,79,0.00,,,0.00,Wunderground v.1.15,2013-10-12 00:00:00,
2013-10-11 19:06:00,71.1,64.3,29.85,NW,314,0.0,1.0,79,0.00,,,0.00,Wunderground v.1.15,2013-10-12 00:06:00,
2013-10-11 19:12:00,71.0,64.2,29.85,East,93,1.0,1.0,79,0.00,,,0.00,Wunderground v.1.15,2013-10-12 00:12:00,
2013-10-11 19:17:00,70.9,64.4,29.84,NW,323,1.0,2.0,80,0.00,,,0.00,Wunderground v.1.15,2013-10-12 00:17:00,
2013-10-11 19:23:00,70.8,64.3,29.84,NNW,345,1.0,2.0,80,0.00,,,0.00,Wunderground v.1.15,2013-10-12 00:23:00,
2013-10-11 19:29:00,70.9,64.1,29.84,NNW,345,1.0,3.0,79,0.00,,,0.00,Wunderground v.1.15,2013-10-12 00:29:00,
2013-10-11 19:35:00,70.8,64.0,29.85,SW,225,1.0,5.0,79,0.00,,,0.00,Wunderground v.1.15,2013-10-12 00:35:00,
2013-10-11 19:41:00,70.5,64.0,29.85,WSW,256,1.0,5.0,80,0.00,,,0.00,Wunderground v.1.15,2013-10-12 00:41:00,
2013-10-11 19:47:00,70.3,64.2,29.85,WSW,256,0.0,5.0,81,0.00,,,0.00,Wunderground v.1.15,2013-10-12 00:47:00,
2013-10-11 19:53:00,69.9,64.2,29.85,WSW,256,0.0,5.0,82,0.00,,,0.00,Wunderground v.1.15,2013-10-12 00:53:00,
2013-10-11 19:58:00,69.6,63.9,29.85,West,269,0.0,5.0,82,0.00,,,0.00,Wunderground v.1.15,2013-10-12 00:58:00,
2013-10-11 20:04:00,69.1,64.1,29.85,West,269,0.0,0.0,84,0.00,,,0.00,Wunderground v.1.15,2013-10-12 01:04:00,
2013-10-11 20:10:00,68.7,63.7,29.85,West,268,0.0,0.0,84,0.00,,,0.00,Wunderground v.1.15,2013-10-12 01:10:00,
2013-10-11 20:16:00,68.3,63.6,29.85,West,269,0.0,0.0,85,0.00,,,0.00,Wunderground v.1.15,2013-10-12 01:16:00,
2013-10-11 20:21:00,68.0,63.7,29.86,West,269,0.0,1.0,86,0.00,,,0.00,Wunderground v.1.15,2013-10-12 01:21:00,
2013-10-11 20:27:00,67.7,63.4,29.85,West,269,0.0,1.0,86,0.00,,,0.00,Wunderground v.1.15,2013-10-12 01:27:00,
2013-10-11 20:33:00,67.3,63.3,29.86,West,269,0.0,3.0,87,0.00,,,0.00,Wunderground v.1.15,2013-10-12 01:33:00,
2013-10-11 20:39:00,67.0,63.3,29.86,West,269,0.0,3.0,88,0.00,,,0.00,Wunderground v.1.15,2013-10-12 01:39:00,
2013-10-11 20:45:00,66.8,63.1,29.86,West,268,0.0,3.0,88,0.00,,,0.00,Wunderground v.1.15,2013-10-12 01:45:00,
2013-10-11 20:51:00,66.4,63.1,29.86,West,269,0.0,3.0,89,0.00,,,0.00,Wunderground v.1.15,2013-10-12 01:51:00,
2013-10-11 20:57:00,66.2,62.9,29.86,West,268,0.0,3.0,89,0.00,,,0.00,Wunderground v.1.15,2013-10-12 01:57:00,
2013-10-11 21:02:00,66.0,62.7,29.86,West,268,0.0,0.0,89,0.00,,,0.00,Wunderground v.1.15,2013-10-12 02:02:00,
2013-10-11 21:08:00,65.7,62.7,29.86,West,269,0.0,0.0,90,0.00,,,0.00,Wunderground v.1.15,2013-10-12 02:08:00,
2013-10-11 21:14:00,65.6,62.9,29.86,West,270,0.0,0.0,91,0.00,,,0.00,Wunderground v.1.15,2013-10-12 02:14:00,
2013-10-11 21:20:00,65.4,62.7,29.86,West,270,0.0,0.0,91,0.00,,,0.00,Wunderground v.1.15,2013-10-12 02:20:00,
2013-10-11 21:25:00,65.5,62.8,29.87,West,269,0.0,0.0,91,0.00,,,0.00,Wunderground v.1.15,2013-10-12 02:25:00,
2013-10-11 21:31:00,65.5,62.8,29.86,West,269,0.0,1.0,91,0.00,,,0.00,Wunderground v.1.15,2013-10-12 02:31:00,
2013-10-11 21:37:00,65.3,62.6,29.87,West,270,0.0,1.0,91,0.00,,,0.00,Wunderground v.1.15,2013-10-12 02:37:00,
2013-10-11 21:43:00,65.0,62.6,29.87,West,270,0.0,1.0,92,0.00,,,0.00,Wunderground v.1.15,2013-10-12 02:43:00,
2013-10-11 21:49:00,64.8,62.7,29.87,West,270,0.0,1.0,93,0.00,,,0.00,Wunderground v.1.15,2013-10-12 02:49:00,
2013-10-11 21:55:00,64.9,62.8,29.87,SSW,212,0.0,1.0,93,0.00,,,0.00,Wunderground v.1.15,2013-10-12 02:55:00,
2013-10-11 22:00:00,64.9,62.8,29.87,SSW,212,0.0,0.0,93,0.00,,,0.00,Wunderground v.1.15,2013-10-12 03:00:00,
2013-10-11 22:05:00,64.9,62.8,29.87,SSW,212,0.0,0.0,93,0.00,,,0.00,Wunderground v.1.15,2013-10-12 03:05:00,
2013-10-11 22:11:00,65.0,62.9,29.87,SSW,212,0.0,0.0,93,0.00,,,0.00,Wunderground v.1.15,2013-10-12 03:11:00,
2013-10-11 22:17:00,65.3,63.2,29.88,SSW,212,0.0,0.0,93,0.00,,,0.00,Wunderground v.1.15,2013-10-12 03:17:00,
2013-10-11 22:23:00,65.5,63.1,29.88,SSW,212,0.0,0.0,92,0.00,,,0.00,Wunderground v.1.15,2013-10-12 03:23:00,
2013-10-11 22:28:00,65.4,63.0,29.88,SSW,212,0.0,0.0,92,0.00,,,0.00,Wunderground v.1.15,2013-10-12 03:28:00,
2013-10-11 22:34:00,65.4,63.0,29.88,SSW,212,0.0,0.0,92,0.00,,,0.00,Wunderground v.1.15,2013-10-12 03:34:00,
2013-10-11 22:40:00,65.6,62.9,29.88,South,187,0.0,0.0,91,0.00,,,0.00,Wunderground v.1.15,2013-10-12 03:40:00,
2013-10-11 22:46:00,65.6,62.9,29.88,South,187,0.0,0.0,91,0.00,,,0.00,Wunderground v.1.15,2013-10-12 03:46:00,
2013-10-11 22:51:00,65.5,62.8,29.88,South,187,0.0,0.0,91,0.00,,,0.00,Wunderground v.1.15,2013-10-12 03:51:00,
2013-10-11 22:57:00,65.2,62.5,29.88,South,187,0.0,0.0,91,0.00,,,0.00,Wunderground v.1.15,2013-10-12 03:57:00,
2013-10-11 23:01:00,65.1,62.7,29.88,South,187,0.0,0.0,92,0.00,,,0.00,Wunderground v.1.15,2013-10-12 04:01:00,
2013-10-11 23:02:00,65.0,62.6,29.88,South,187,0.0,0.0,92,0.00,,,0.00,Wunderground v.1.15,2013-10-12 04:02:00,
2013-10-11 23:04:00,65.0,62.6,29.88,South,187,0.0,0.0,92,0.00,,,0.00,Wunderground v.1.15,2013-10-12 04:04:00,
2013-10-11 23:05:00,64.9,62.5,29.88,South,186,0.0,0.0,92,0.00,,,0.00,Wunderground v.1.15,2013-10-12 04:05:00,
2013-10-11 23:07:00,64.9,62.5,29.88,South,187,0.0,0.0,92,0.00,,,0.00,Wunderground v.1.15,2013-10-12 04:07:00,
2013-10-11 23:13:00,64.6,62.2,29.88,South,186,0.0,0.0,92,0.00,,,0.00,Wunderground v.1.15,2013-10-12 04:13:00,
2013-10-11 23:16:00,64.4,62.0,29.88,South,187,0.0,0.0,92,0.00,,,0.00,Wunderground v.1.15,2013-10-12 04:16:00,
2013-10-11 23:22:00,64.5,62.7,29.88,South,187,0.0,0.0,94,0.00,,,0.00,Wunderground v.1.15,2013-10-12 04:22:00,
2013-10-11 23:28:00,64.4,62.3,29.88,South,187,0.0,0.0,93,0.00,,,0.00,Wunderground v.1.15,2013-10-12 04:28:00,
2013-10-11 23:34:00,64.3,62.5,29.88,South,187,0.0,0.0,94,0.00,,,0.00,Wunderground v.1.15,2013-10-12 04:34:00,
2013-10-11 23:40:00,64.6,62.8,29.88,South,187,0.0,0.0,94,0.00,,,0.00,Wunderground v.1.15,2013-10-12 04:40:00,
2013-10-11 23:45:00,64.8,63.0,29.88,South,179,0.0,0.0,94,0.00,,,0.00,Wunderground v.1.15,2013-10-12 04:45:00,
2013-10-11 23:51:00,65.0,62.9,29.88,SE,132,0.0,0.0,93,0.00,,,0.00,Wunderground v.1.15,2013-10-12 04:51:00,
2013-10-11 23:57:00,64.8,62.7,29.88,SE,132,0.0,0.0,93,0.00,,,0.00,Wunderground v.1.15,2013-10-12 04:57:00,